Temperature
16 16 16 17 17 17 17 17 17 17 17 17 17 17 17 17 17 17 17 16 17 17 17 17 16 16 16 16 16 16 16 16 16 16 16 15 15 15 15 15 15 15 15
16 16 16 16 17 17 17 17 17 17 17 17 17 17 17 17 17 16 16 16 16 16 16 16 16 16 16 16 16 16 16 16 16 15 15 15 15 15 15 15 15 15 15
16 16 16 16 17 17 17 17 17 17 17 17 17 17 17 16 16 16 16 16 16 16 16 16 16 16 16 16 16 16 16 16 15 15 15 15 15 15 15 15 15 15 15
16 16 16 16 17 17 17 17 17 16 16 16 16 16 16 16 16 16 16 16 16 16 16 16 16 16 16 16 16 15 15 15 15 15 15 15 15 15 15 15 15 14 14
16 16 16 16 16 16 16 16 16 16 16 16 16 16 16 16 16 16 16 16 16 16 16 16 16 16 16 15 15 15 15 15 15 15 15 15 14 14 14 14 14 14 14
16 16 16 16 16 16 16 16 16 16 16 16 16 16 16 16 16 16 16 16 16 15 15 15 15 15 15 15 15 15 15 15 15 15 14 14 14 14 14 14 14 14 14
16 16 16 16 16 16 16 16 16 16 16 16 16 16 16 16 16 16 16 15 15 15 15 15 15 15 15 15 15 15 15 14 14 14 14 14 14 14 14 14 14 14 14
16 16 16 16 16 16 16 16 16 16 16 16 16 16 16 16 16 16 15 15 15 15 15 15 15 15 15 15 15 15 14 14 14 14 14 14 14 14 14 14 14 14 14
15 15 15 15 15 15 16 16 16 16 16 15 15 15 15 15 15 15 15 15 15 15 15 15 15 15 15 15 14 14 14 14 14 14 14 13 13 13 13 13 13 13 13
15 15 15 15 15 15 15 15 15 15 15 15 15 15 15 15 15 15 15 15 15 15 14 14 14 14 14 14 14 14 14 14 14 13 13 13 13 13 13 13 13 13 13
14 15 15 15 15 15 15 15 15 15 15 15 15 15 15 15 15 15 15 14 14 14 14 14 14 14 14 13 13 13 13 13 13 13 13 13 13 13 12 12 12 12 12
14 14 14 15 15 15 15 15 15 15 15 15 15 15 14 14 14 14 14 14 14 14 14 14 13 13 13 13 13 13 13 13 13 13 13 13 13 12 12 12 12 12 12
15 14 14 14 14 14 15 15 15 15 15 14 14 14 14 14 14 14 14 14 14 13 13 13 13 13 13 13 13 13 13 12 12 12 12 12 12 12 11 11 11 11 11
14 14 14 14 14 14 14 14 14 14 14 14 14 14 14 14 14 14 13 13 13 13 13 13 13 13 12 12 12 12 12 12 12 12 12 12 11 11 11 11 11 11 11
14 14 14 14 14 14 14 14 14 14 14 14 14 14 13 13 13 13 13 13 13 13 12 12 12 12 12 12 12 12 12 12 12 11 11 11 11 11 10 10 10 10 10
14 14 14 14 14 14 14 14 14 13 13 13 13 13 13 13 13 13 13 12 12 12 12 12 12 12 12 12 12 12 11 11 11 11 11 10 10 10 10 9 9 9 9
14 14 13 13 13 13 13 13 13 13 13 13 13 13 13 12 12 12 12 12 12 12 12 11 11 11 11 11 11 11 11 11 11 10 10 10 10 9 9 9 9 9 9
14 13 13 13 13 13 13 13 13 13 13 12 12 12 12 12 12 12 12 12 11 11 11 11 11 11 11 11 11 11 10 10 10 10 9 9 9 9 9 8 8 8 8
14 13 13 13 13 13 13 13 12 12 12 12 12 12 12 12 12 11 11 11 11 11 11 11 11 10 10 10 10 10 10 10 9 9 9 9 8 8 8 8 8 8 7
14 13 13 13 13 12 12 12 12 12 12 11 11 11 11 11 11 11 11 11 10 10 10 10 10 10 10 10 10 9 9 9 9 8 8 8 8 8 7 7 7 7 7
13 13 13 12 12 12 12 12 12 12 11 11 11 11 11 11 10 10 10 10 10 10 10 10 9 9 9 9 9 9 8 8 8 8 7 7 7 7 7 7 7 6 6
13 13 12 12 12 12 12 12 12 11 11 11 11 10 10 10 10 10 10 10 9 9 9 9 9 8 8 8 7 7 7 7 7 7 7 7 6 6 6 6 6 6 6
13 13 12 12 12 12 11 11 11 11 10 10 10 10 10 10 9 9 9 9 9 9 9 8 8 8 7 7 7 6 5 5 5 6 6 6 6 6 6 6 6 5 5
12 12 12 12 11 11 11 11 11 11 10 10 10 10 9 9 9 9 9 8 8 8 8 8 7 7 7 6 6 6 5 5 4 4 5 5 5 5 5 5 5 5 5
12 12 12 11 11 11 11 11 10 10 10 10 10 9 9 9 9 8 8 8 8 7 7 7 7 6 6 6 5 5 5 5 4 3 3 4 5 5 5 5 5 5 4
12 11 11 11 11 11 10 10 10 10 10 9 9 9 9 8 8 8 8 7 7 7 7 6 6 6 6 5 5 5 4 4 4 3 3 3 4 4 4 5 4 4 4
Wind_Speed
4 7 13 14 14 14 15 14 14 14 14 14 14 14 14 13 13 13 13 12 12 11 11 11 11 11 12 11 11 10 9 9 9 9 9 8 8 7 7 6 5 5 5
8 11 15 15 15 15 15 15 15 14 14 14 14 14 14 13 13 13 12 12 11 11 11 11 11 11 11 11 11 10 9 9 8 8 8 8 7 6 6 5 5 4 4
10 12 15 16 16 16 15 15 15 15 14 14 14 14 13 13 12 12 12 11 11 11 11 11 11 10 10 10 10 10 9 8 8 7 7 6 5 6 5 5 4 4 3
12 13 14 17 17 16 16 16 15 15 14 14 14 13 13 12 12 12 12 11 11 11 11 10 10 10 9 9 9 10 9 9 9 7 6 5 5 5 5 4 4 4 3
11 13 15 17 17 16 16 15 15 15 14 14 14 13 13 12 12 12 12 11 11 11 11 11 10 10 9 9 9 9 9 9 9 8 6 5 5 5 4 4 4 4 4
9 12 15 17 17 16 16 15 15 15 15 14 14 13 13 12 12 12 11 11 11 11 10 10 10 9 9 9 8 9 9 9 9 7 6 5 5 5 4 4 4 4 3
9 11 15 17 17 16 16 15 15 15 14 14 13 13 12 12 12 11 11 11 11 10 10 10 10 10 9 9 9 9 9 9 8 7 6 5 5 6 5 4 4 4 3
11 11 14 16 16 16 16 15 15 14 14 13 13 12 12 12 11 11 10 10 10 10 9 9 9 9 9 9 9 9 10 9 7 6 6 5 6 6 6 6 5 5 5
10 10 10 13 14 15 15 15 14 14 13 13 12 12 12 11 11 10 10 10 9 9 9 8 8 9 9 9 9 10 10 10 8 6 5 5 6 6 6 6 6 6 6
9 8 9 10 12 12 13 13 13 13 13 12 12 12 11 10 10 10 9 9 8 8 8 8 8 8 8 8 8 8 9 9 8 6 5 5 6 6 6 6 6 6 6
8 7 7 8 10 11 11 11 12 12 12 11 11 11 10 9 8 8 9 8 8 8 8 8 8 8 8 8 8 8 8 7 6 5 5 5 6 6 6 6 6 6 7
9 7 6 7 8 8 9 9 9 9 10 10 10 10 9 8 8 8 8 8 8 8 7 7 7 7 7 7 7 7 6 7 6 5 5 7 7 7 7 7 7 7 8
10 9 7 7 8 8 7 8 7 8 8 9 9 9 9 8 7 7 7 7 8 8 7 7 7 6 6 5 5 5 5 6 5 6 6 7 8 8 9 9 9 9 9
10 9 8 7 7 7 8 6 7 6 6 6 7 8 8 6 5 5 5 6 6 6 6 6 5 5 5 5 4 4 4 4 5 5 6 8 8 9 9 10 10 11 11
10 9 8 8 8 7 6 5 6 5 6 6 6 7 7 5 3 4 4 5 5 5 5 4 4 4 4 4 4 3 3 4 4 5 6 8 9 9 10 10 11 12 12
11 10 9 9 8 8 6 5 5 6 6 6 6 6 7 7 5 4 3 3 4 4 4 3 3 2 2 2 2 3 3 3 3 4 5 7 8 9 10 11 12 13 14
12 10 10 9 8 8 7 6 6 6 7 5 5 6 7 7 6 4 2 2 2 3 4 4 4 3 2 3 3 3 3 3 3 4 5 5 6 8 10 12 13 14 15
12 11 10 10 9 8 6 6 5 6 6 5 6 6 6 6 5 4 2 1 3 4 3 2 2 2 3 3 3 4 3 3 3 4 4 5 5 7 9 12 14 15 16
13 12 10 9 9 8 7 6 5 5 5 5 5 5 5 5 5 4 2 2 3 3 2 2 2 2 3 4 4 4 3 3 3 4 4 5 6 7 8 11 14 15 16
11 11 11 9 9 8 6 5 4 4 3 4 4 4 5 4 4 4 3 2 3 2 2 2 2 2 2 4 5 5 4 4 3 3 4 4 6 8 9 10 11 12 16
10 10 11 10 9 8 6 5 4 3 2 1 2 4 4 4 4 4 2 2 2 1 1 2 2 3 3 3 3 4 4 4 3 3 3 3 5 7 8 9 9 10 11
12 11 11 11 10 8 6 5 3 3 2 1 1 2 3 3 3 2 2 1 1 1 2 2 2 2 3 3 1 3 4 4 3 4 4 4 5 6 6 9 9 10 11
11 12 11 10 10 8 7 5 4 3 3 2 1 0 1 2 2 2 1 1 1 0 1 2 1 1 2 3 1 0 1 4 6 4 4 5 5 5 6 7 8 9 11
11 10 10 10 9 8 8 8 8 5 3 2 2 1 1 1 1 1 1 1 0 1 1 2 2 1 1 3 2 1 3 3 3 6 5 4 6 7 7 8 8 9 11
10 10 9 9 8 7 7 8 7 4 2 1 1 1 0 1 1 0 0 0 1 1 2 2 2 2 2 3 3 3 3 3 3 4 8 8 6 6 6 7 7 7 10
8 8 9 9 7 7 7 7 7 6 4 3 2 1 0 1 1 1 1 1 1 1 2 3 3 3 3 3 4 3 3 3 4 4 7 9 9 8 7 6 6 7 8
Wind_Direction
150 145 131 127 123 117 113 109 105 103 102 100 99 97 95 95 93 93 91 88 86 84 81 79 77 75 73 71 71 73 73 71 69 69 69 69 71 72 79 83 80 77 86
146 138 130 126 123 119 114 110 107 104 102 102 101 98 96 95 93 93 93 89 86 84 81 78 76 73 70 68 66 67 69 68 65 63 61 60 59 62 69 81 83 83 89
134 133 129 125 122 118 114 111 107 105 103 102 101 100 97 96 94 92 91 88 84 81 80 77 74 72 68 65 63 62 59 56 55 54 53 50 50 57 60 70 72 68 82
129 129 128 125 122 119 116 113 109 106 104 103 102 100 98 96 94 91 87 85 82 80 78 75 72 71 69 65 62 57 52 51 50 49 51 47 46 51 52 54 56 61 65
120 124 127 124 122 120 117 114 111 108 105 103 102 99 97 94 91 89 87 84 81 79 76 72 68 66 65 62 59 53 48 49 45 45 48 42 34 33 38 41 43 53 56
116 121 125 124 122 120 117 115 111 109 107 104 101 97 94 92 91 88 87 84 81 79 75 71 67 64 62 59 54 50 48 45 44 42 38 31 28 27 29 35 38 39 47
121 119 123 122 121 120 118 115 113 111 109 106 103 99 95 92 91 90 86 83 80 77 74 71 67 65 61 58 53 50 46 42 42 42 36 29 27 29 28 29 28 26 18
125 119 122 122 120 118 118 116 114 112 110 107 105 101 96 93 91 88 86 85 82 77 74 70 68 64 59 55 52 48 39 37 38 39 36 27 24 28 29 27 20 10 359
119 115 113 117 118 118 117 115 114 112 110 106 103 100 96 92 89 87 84 82 80 75 71 68 65 61 56 52 50 45 41 38 39 33 28 22 20 20 18 17 11 4 358
116 115 111 111 113 113 115 115 114 111 109 106 103 99 95 90 86 82 78 76 74 71 67 64 61 57 52 49 46 39 35 33 32 25 18 11 9 3 359 357 351 347 343
127 124 120 115 113 114 115 115 111 109 107 105 103 100 93 86 82 75 71 70 68 65 63 59 56 55 50 46 41 35 31 26 23 17 6 0 358 351 348 346 341 336 330
150 146 138 129 125 120 115 108 104 104 103 102 101 100 94 88 82 74 68 64 61 57 55 51 49 48 43 38 33 31 27 20 18 10 2 354 347 344 341 337 333 328 323
156 152 149 141 131 122 114 112 106 104 101 101 102 101 95 86 80 72 64 54 50 47 44 34 34 33 34 30 24 20 15 12 5 355 351 347 341 337 334 331 327 324 319
154 155 153 143 133 127 123 118 116 110 105 102 103 104 97 85 75 68 62 54 49 46 42 33 29 24 24 19 17 13 4 359 352 346 340 337 336 334 331 329 324 322 317
156 157 155 147 140 134 124 124 119 116 116 113 107 106 107 99 85 73 64 58 49 45 42 32 27 23 16 9 4 360 344 339 337 341 335 328 329 330 330 328 325 321 319
163 160 156 150 145 138 133 130 128 126 121 113 108 110 110 108 101 85 67 55 43 39 36 34 26 17 359 357 338 336 325 328 331 331 332 328 327 330 330 328 325 322 318
165 160 158 154 144 140 136 134 130 130 124 116 114 112 111 110 106 95 72 46 28 31 35 31 21 17 353 342 324 313 312 314 323 317 320 323 324 324 325 325 322 320 317
161 160 162 157 148 144 137 132 128 126 122 121 119 112 112 112 109 96 74 41 29 36 33 13 2 355 340 329 314 303 304 304 301 306 312 317 319 317 317 318 318 317 315
166 162 160 153 152 147 136 127 123 120 118 122 119 114 114 111 108 101 83 47 43 41 20 355 358 343 328 324 308 301 302 297 292 300 303 310 309 308 311 314 316 316 315
163 159 157 153 151 142 129 113 104 99 103 114 118 120 118 111 104 97 80 48 47 37 12 357 341 336 317 312 312 311 302 293 290 285 288 308 314 309 312 313 311 311 312
156 157 159 156 156 148 144 143 140 145 141 122 117 121 118 108 98 92 68 43 39 33 356 348 340 337 334 329 334 325 313 297 292 284 286 294 305 312 310 307 305 305 306
163 162 162 162 160 160 161 155 146 143 142 149 106 101 109 99 91 90 78 51 30 21 1 351 351 338 333 354 352 336 330 321 300 293 290 286 291 305 305 308 304 303 303
166 169 168 167 162 159 149 128 110 83 69 65 69 61 66 92 91 96 91 68 20 26 315 313 311 325 317 325 347 164 315 292 307 285 275 281 289 294 295 302 300 300 301
176 171 164 163 160 156 150 148 149 150 159 190 188 193 357 85 87 83 76 56 352 334 298 295 306 287 280 303 312 268 239 251 284 301 298 283 287 288 285 295 296 296 296
171 165 161 155 155 154 154 156 154 152 159 146 129 129 335 348 11 16 33 25 316 307 295 299 302 292 274 268 274 282 287 280 255 269 294 304 301 281 280 278 282 289 296
157 154 154 153 154 155 154 155 157 158 151 141 150 172 246 304 310 316 327 322 307 303 295 288 283 283 278 275 271 263 264 270 273 269 280 295 299 295 288 277 273 280 291
Height
1516 1518 1520 1521 1523 1524 1525 1526 1527 1528 1528 1529 1529 1530 1530 1531 1531 1531 1532 1532 1532 1532 1532 1532 1532 1532 1532 1532 1532 1531 1531 1531 1531 1531 1530 1530 1530 1530 1529 1529 1529 1528 1527
1514 1517 1520 1521 1523 1524 1525 1526 1527 1528 1529 1529 1530 1530 1531 1531 1532 1532 1532 1532 1532 1533 1533 1533 1533 1532 1532 1532 1532 1532 1531 1531 1531 1531 1530 1530 1530 1530 1529 1529 1529 1528 1528
1514 1517 1519 1521 1523 1524 1525 1526 1527 1528 1529 1529 1530 1530 1531 1531 1532 1532 1532 1533 1533 1533 1533 1533 1533 1533 1532 1532 1532 1532 1531 1531 1531 1531 1530 1530 1530 1530 1529 1529 1528 1528 1527
1515 1517 1519 1521 1523 1524 1525 1526 1527 1528 1529 1530 1530 1531 1531 1532 1532 1532 1533 1533 1533 1533 1533 1533 1533 1533 1532 1532 1532 1532 1531 1531 1530 1530 1530 1530 1529 1529 1529 1528 1528 1527 1527
1515 1517 1519 1521 1523 1524 1525 1526 1527 1528 1529 1530 1530 1531 1531 1532 1532 1532 1533 1533 1533 1533 1533 1533 1533 1532 1532 1532 1532 1531 1531 1530 1530 1530 1529 1529 1529 1529 1528 1527 1527 1526 1526
1515 1517 1519 1521 1523 1524 1525 1526 1527 1528 1529 1530 1530 1531 1532 1532 1532 1532 1533 1533 1533 1533 1533 1533 1532 1532 1532 1532 1531 1531 1530 1530 1529 1529 1529 1528 1528 1527 1527 1526 1526 1525 1525
1515 1517 1519 1521 1523 1524 1525 1526 1527 1528 1529 1530 1530 1531 1531 1532 1532 1532 1533 1533 1533 1533 1532 1532 1532 1532 1531 1531 1531 1530 1530 1529 1529 1528 1528 1527 1527 1526 1526 1525 1524 1524 1523
1515 1517 1519 1521 1523 1524 1525 1526 1527 1528 1529 1530 1530 1531 1531 1532 1532 1532 1532 1532 1532 1532 1532 1532 1531 1531 1531 1530 1530 1529 1529 1528 1528 1527 1527 1526 1526 1525 1524 1524 1523 1522 1522
1515 1517 1519 1521 1522 1524 1525 1526 1527 1528 1529 1529 1530 1531 1531 1531 1531 1531 1531 1531 1531 1531 1531 1531 1531 1530 1530 1529 1529 1528 1528 1527 1527 1526 1525 1525 1524 1523 1523 1522 1521 1520 1519
1515 1517 1519 1520 1522 1523 1525 1526 1527 1528 1528 1529 1530 1530 1531 1531 1531 1531 1531 1531 1531 1530 1530 1530 1530 1529 1529 1528 1528 1527 1527 1526 1525 1525 1524 1523 1523 1522 1521 1520 1519 1518 1517
1515 1516 1518 1520 1521 1523 1524 1525 1526 1527 1528 1529 1529 1530 1530 1530 1530 1530 1530 1530 1530 1530 1529 1529 1529 1528 1528 1527 1527 1526 1525 1525 1524 1523 1522 1521 1521 1520 1519 1518 1517 1515 1514
1513 1515 1517 1519 1521 1522 1523 1525 1526 1526 1527 1528 1529 1529 1529 1529 1530 1530 1529 1529 1529 1529 1529 1528 1528 1527 1527 1526 1525 1525 1524 1523 1522 1521 1520 1520 1519 1517 1516 1515 1514 1513 1511
1512 1514 1516 1518 1520 1521 1523 1524 1525 1526 1527 1527 1528 1528 1529 1529 1529 1529 1529 1529 1528 1528 1528 1527 1527 1526 1525 1525 1524 1523 1523 1522 1521 1520 1519 1517 1516 1515 1514 1512 1511 1510 1508
1510 1512 1515 1517 1519 1521 1522 1523 1524 1525 1526 1527 1527 1528 1528 1528 1528 1528 1528 1528 1527 1527 1526 1526 1525 1525 1524 1523 1523 1522 1521 1520 1519 1517 1516 1515 1514 1512 1511 1509 1508 1507 1505
1509 1511 1513 1515 1517 1519 1521 1522 1523 1524 1525 1526 1526 1527 1527 1527 1527 1527 1527 1527 1526 1526 1525 1524 1524 1523 1522 1521 1521 1520 1519 1517 1516 1515 1514 1512 1511 1510 1508 1506 1505 1503 1502
1507 1510 1512 1514 1516 1518 1520 1521 1522 1523 1524 1525 1526 1526 1526 1527 1526 1526 1526 1526 1525 1525 1524 1523 1522 1521 1520 1519 1518 1517 1516 1515 1514 1512 1511 1510 1508 1506 1505 1503 1501 1500 1498
1505 1508 1510 1513 1515 1517 1518 1520 1521 1522 1523 1524 1525 1525 1525 1525 1525 1525 1525 1524 1524 1523 1523 1522 1521 1520 1518 1517 1515 1514 1513 1512 1511 1509 1508 1506 1505 1503 1501 1499 1498 1496 1494
1503 1506 1509 1511 1513 1515 1517 1519 1520 1521 1522 1523 1523 1524 1524 1524 1524 1524 1523 1523 1522 1522 1521 1520 1518 1517 1516 1514 1512 1511 1510 1509 1507 1506 1505 1503 1501 1499 1498 1495 1493 1491 1489
1501 1504 1506 1509 1511 1514 1515 1517 1519 1520 1521 1522 1522 1522 1523 1523 1523 1522 1522 1521 1521 1520 1519 1518 1516 1515 1513 1511 1509 1508 1507 1505 1504 1503 1501 1500 1498 1496 1493 1491 1489 1487 1485
1499 1502 1504 1507 1509 1512 1513 1515 1517 1518 1519 1520 1521 1521 1521 1521 1521 1520 1520 1519 1519 1518 1517 1515 1514 1512 1510 1508 1506 1504 1503 1501 1500 1499 1498 1496 1494 1492 1489 1487 1485 1483 1480
1496 1499 1501 1504 1506 1509 1511 1512 1514 1515 1517 1518 1519 1519 1519 1519 1519 1518 1518 1517 1517 1515 1514 1513 1511 1509 1507 1505 1503 1500 1498 1497 1496 1495 1493 1491 1490 1488 1485 1483 1481 1478 1475
1492 1495 1498 1501 1504 1506 1508 1510 1512 1514 1515 1516 1517 1517 1517 1517 1517 1516 1516 1515 1514 1513 1512 1510 1509 1506 1505 1503 1501 1497 1494 1492 1491 1490 1489 1487 1485 1483 1481 1479 1476 1473 1471
1488 1491 1495 1498 1501 1504 1506 1509 1510 1512 1513 1514 1514 1515 1515 1515 1515 1514 1514 1513 1512 1510 1509 1508 1506 1504 1502 1501 1500 1499 1495 1490 1487 1484 1484 1482 1480 1478 1476 1474 1471 1468 1466
1484 1488 1492 1495 1498 1501 1503 1505 1507 1508 1509 1510 1512 1512 1513 1513 1513 1512 1511 1510 1509 1508 1507 1505 1504 1502 1500 1498 1497 1496 1495 1491 1488 1481 1478 1477 1476 1474 1471 1469 1466 1463 1460
1481 1485 1488 1492 1495 1498 1501 1503 1504 1506 1507 1509 1509 1510 1510 1510 1510 1509 1508 1507 1506 1505 1504 1503 1501 1499 1498 1496 1494 1492 1490 1488 1486 1482 1474 1471 1470 1468 1466 1464 1461 1458 1455
1478 1482 1485 1489 1492 1495 1498 1500 1502 1503 1505 1506 1506 1507 1507 1507 1506 1506 1505 1504 1503 1502 1501 1499 1498 1496 1494 1492 1490 1488 1486 1484 1482 1479 1473 1467 1464 1462 1460 1458 1456 1453 1450